Location: Unspecified
(38.5482°N, 1.4063°W)
Time: 12:50:35
(UTC+00:00)

BlueWalker 3 - Visible Passes

Search period start: 27 February 2024 00:00
Search period end: 08 March 2024 00:00
Orbit: 486 x 500 km, 53.2° (Epoch: 26 February)

Date Brightness Start Highest point End Pass type
(mag) Time Alt. Az. Time Alt. Az. Time Alt. Az.
27 Feb 4.4 19:14:46 10° N 19:14:50 10° N 19:14:54 10° NNE visible
28 Feb 4.8 20:27:03 10° NNW 20:27:28 12° NNW 20:27:28 12° NNW visible
29 Feb 4.1 20:03:12 10° NNW 20:04:41 19° N 20:04:41 19° N visible
01 Mar 3.4 19:39:19 10° NNW 19:41:55 24° NNE 19:41:55 24° NNE visible
02 Mar 3.2 19:15:26 10° NNW 19:18:36 25° NNE 19:19:13 24° NE visible
02 Mar 5.2 20:53:24 10° WNW 20:53:42 12° WNW 20:53:42 12° WNW visible
03 Mar 3.3 18:51:32 10° NNW 18:54:40 24° NNE 18:56:35 17° ENE visible
03 Mar 4.2 20:29:28 10° WNW 20:31:04 23° WNW 20:31:04 23° WNW visible
04 Mar 3.3 18:27:36 10° NNW 18:30:42 23° NNE 18:33:48 10° E visible
04 Mar 2.9 20:05:30 10° WNW 20:08:31 44° W 20:08:31 44° W visible
05 Mar 2.5 19:41:32 10° WNW 19:45:12 52° SW 19:46:05 41° S visible
06 Mar 2.4 19:17:32 10° WNW 19:21:14 55° SW 19:23:47 18° SSE visible
07 Mar 2.4 18:53:31 10° NW 18:57:14 57° SW 19:00:55 10° SSE visible
